Location: ????????
(60.4333°N, 46.4710°E)
Time: 04:03:47
(UTC+00:00)

CZ-4 R/B - Pass Details

Date: 25 November 2020
Orbit: 533 x 597 km, 97.7° (Epoch: 19 January)

Event Time Altitude Azimuth Distance (km) Brightness Sun altitude
Exits shadow 16:02:42 11° 205° (SSW) 1,747 4.0 -28.1°
Maximum altitude 16:06:00 30° 266° (W) 1,017 3.2 -28.5°
Drops below altitude 10° 16:09:38 10° 329° (NNW) 1,882 4.5 -28.9°
Sets 16:12:01 0° 340° (NNW) 2,797 5.3 -29.2°
